Location: 5810 Zion Rd, Cleves, OH 45002, USA
(39.1922°N, 84.7113°W)
Time: 18:20:30
(UTC-05:00)

Vanguard 3 - Pass Details

Date: 14 December 2019
Orbit: 507 x 3264 km, 33.4° (Epoch: 26 January)

Event Time Altitude Azimuth Distance (km) Brightness Sun altitude
Rises 15:40:00 0° 267° (W) 6,261 12.4 13.9°
Reaches altitude 10° 15:47:51 10° 244° (WSW) 5,765 13.2 12.8°
Maximum altitude 15:54:18 13° 223° (SW) 5,788 15.0 11.9°
Drops below altitude 10° 16:01:12 10° 202° (SSW) 6,181 13.0 11.0°
Sets 16:10:46 0° 179° (S) 7,137 12.6 9.6°
